NUA0558 DNMM-DNAA

Flight info

Callsign NUA0558
Flight time 0h 50m
Altitude 35000
Route IBA1Q IBA UR778 KELIG UW951 MESES MESES1N
Aircraft A321/M-SDE3FGHIRWY/LB1

Departure

Time 2026-05-08 14:31
Airport Murtala Muhammed International Airport (DNMM)

Arrival

Time 2026-05-08 15:21
Airport Nnamdi Azikiwe International Airport (DNAA)
Time Latitude Longitude Altitude Speed Heading
2026-05-08 14:01 6.58446 3.33193 129 ft 0 kts 73°
2026-05-08 14:23 6.58442 3.33182 123 ft 3 kts 63°
2026-05-08 14:23 6.58432 3.33166 122 ft 3 kts 42°
2026-05-08 14:23 6.58416 3.33154 122 ft 3 kts 20°
2026-05-08 14:24 6.58396 3.33149 124 ft 3 kts
2026-05-08 14:24 6.58382 3.33149 121 ft 1 kts 359°
2026-05-08 14:24 6.58379 3.33149 121 ft 1 kts 359°
2026-05-08 14:26 6.58388 3.33149 121 ft 7 kts 359°
2026-05-08 14:27 6.58495 3.33148 128 ft 18 kts 359°
2026-05-08 14:27 6.58564 3.33077 123 ft 15 kts 273°
2026-05-08 14:27 6.58634 3.33041 123 ft 11 kts 355°
2026-05-08 14:27 6.58707 3.33041 128 ft 12 kts 360°
2026-05-08 14:28 6.58849 3.33040 126 ft 26 kts 358°
2026-05-08 14:28 6.59029 3.33040 129 ft 25 kts
2026-05-08 14:28 6.59200 3.33036 128 ft 24 kts 358°
2026-05-08 14:28 6.59358 3.33036 129 ft 22 kts
2026-05-08 14:29 6.59505 3.33036 132 ft 20 kts 359°
2026-05-08 14:29 6.59638 3.33027 134 ft 16 kts 332°
2026-05-08 14:29 6.59665 3.32939 137 ft 11 kts 275°
2026-05-08 14:29 6.59652 3.32888 138 ft 6 kts 195°
2026-05-08 14:30 6.59617 3.32886 137 ft 0 kts 179°
2026-05-08 14:30 6.59476 3.32887 133 ft 56 kts 179°
2026-05-08 14:30 6.58856 3.32896 127 ft 119 kts 180°
2026-05-08 14:31 6.57851 3.32908 109 ft 167 kts 179°
2026-05-08 14:31 6.56714 3.32914 772 ft 160 kts 180°
2026-05-08 14:31 6.55627 3.32926 1416 ft 157 kts 175°
2026-05-08 14:32 6.54058 3.34430 2109 ft 191 kts 96°
2026-05-08 14:32 6.54474 3.35754 2283 ft 215 kts 52°
2026-05-08 14:32 6.55611 3.36845 2431 ft 237 kts 40°
2026-05-08 14:32 6.57003 3.37890 2570 ft 262 kts 36°
2026-05-08 14:33 6.58541 3.38975 3048 ft 274 kts 36°
2026-05-08 14:33 6.60111 3.40083 3759 ft 276 kts 36°
2026-05-08 14:33 6.61669 3.41204 4519 ft 277 kts 37°
2026-05-08 14:33 6.63231 3.42349 4895 ft 277 kts 38°
2026-05-08 14:34 6.64782 3.43507 5662 ft 276 kts 39°
2026-05-08 14:34 6.66297 3.44652 6404 ft 276 kts 39°
2026-05-08 14:34 6.67833 3.45820 7078 ft 277 kts 39°
2026-05-08 14:34 6.69364 3.46985 7782 ft 276 kts 40°
2026-05-08 14:35 6.70896 3.48153 8502 ft 275 kts 41°
2026-05-08 14:35 6.72418 3.49311 9223 ft 273 kts 41°
2026-05-08 14:35 6.73938 3.50468 9913 ft 273 kts 42°
2026-05-08 14:35 6.75457 3.51627 10215 ft 287 kts 42°
2026-05-08 14:36 6.77102 3.52887 10335 ft 306 kts 41°
2026-05-08 14:36 6.78849 3.54223 10455 ft 324 kts 41°
2026-05-08 14:36 6.80691 3.55629 10640 ft 339 kts 41°
2026-05-08 14:36 6.82589 3.57071 11052 ft 344 kts 40°
2026-05-08 14:37 6.84511 3.58531 11528 ft 348 kts 40°
2026-05-08 14:37 6.85800 3.59510 11846 ft 351 kts 40°
2026-05-08 14:37 6.88426 3.61505 12500 ft 356 kts 40°
2026-05-08 14:37 6.90387 3.62998 12979 ft 359 kts 40°
2026-05-08 14:38 6.92390 3.64523 13429 ft 362 kts 40°
2026-05-08 14:38 6.94412 3.66061 13841 ft 366 kts 40°
2026-05-08 14:38 6.96455 3.67613 14226 ft 368 kts 40°
2026-05-08 14:38 6.98509 3.69177 14609 ft 371 kts 39°
2026-05-08 14:39 7.00581 3.70756 14974 ft 374 kts 39°
2026-05-08 14:39 7.01965 3.71811 15218 ft 376 kts 39°
2026-05-08 14:39 7.04750 3.73936 15702 ft 380 kts 39°
2026-05-08 14:39 7.06870 3.75552 16057 ft 383 kts 39°
2026-05-08 14:40 7.09009 3.77178 16416 ft 386 kts 39°
2026-05-08 14:40 7.10436 3.78262 16621 ft 388 kts 38°
2026-05-08 14:40 7.12596 3.79904 16945 ft 390 kts 39°
2026-05-08 14:40 7.14774 3.81562 17248 ft 393 kts 38°
2026-05-08 14:41 7.16954 3.83228 17560 ft 395 kts 38°
2026-05-08 14:41 7.19164 3.84919 17839 ft 398 kts 38°
2026-05-08 14:41 7.21348 3.86592 18110 ft 400 kts 38°
2026-05-08 14:41 7.23600 3.88312 18351 ft 403 kts 38°
2026-05-08 14:42 7.25843 3.90022 18583 ft 404 kts 38°
2026-05-08 14:42 7.28062 3.91713 18825 ft 406 kts 38°
2026-05-08 14:42 7.30321 3.93436 19071 ft 408 kts 38°
2026-05-08 14:42 7.32590 3.95166 19316 ft 409 kts 38°
2026-05-08 14:43 7.34872 3.96906 19548 ft 411 kts 38°
2026-05-08 14:43 7.37088 3.98739 19778 ft 412 kts 45°
2026-05-08 14:43 7.38956 4.00910 20007 ft 412 kts 55°
2026-05-08 14:43 7.40565 4.03273 20239 ft 414 kts 53°
2026-05-08 14:44 7.42429 4.05494 20475 ft 416 kts 50°
2026-05-08 14:44 7.44329 4.07696 20718 ft 417 kts 50°
2026-05-08 14:44 7.46240 4.09911 20977 ft 419 kts 50°
2026-05-08 14:44 7.47638 4.11524 21158 ft 420 kts 50°
2026-05-08 14:45 7.49562 4.13754 21406 ft 422 kts 50°
2026-05-08 14:45 7.51464 4.15969 21652 ft 423 kts 50°
2026-05-08 14:45 7.53398 4.18222 21909 ft 425 kts 50°
2026-05-08 14:45 7.55339 4.20483 22165 ft 427 kts 50°
2026-05-08 14:46 7.57288 4.22752 22417 ft 428 kts 50°
2026-05-08 14:46 7.59221 4.25002 22680 ft 430 kts 50°
2026-05-08 14:46 7.61190 4.27290 22923 ft 432 kts 50°
2026-05-08 14:46 7.63167 4.29587 23160 ft 434 kts 50°
2026-05-08 14:47 7.65145 4.31887 23398 ft 435 kts 50°
2026-05-08 14:47 7.67135 4.34207 23601 ft 437 kts 50°
2026-05-08 14:47 7.69130 4.36531 23796 ft 438 kts 50°
2026-05-08 14:47 7.71105 4.38833 24011 ft 439 kts 50°
2026-05-08 14:48 7.73131 4.41200 24202 ft 440 kts 51°
2026-05-08 14:48 7.74869 4.43693 24399 ft 440 kts 60°
2026-05-08 14:48 7.76366 4.46394 24601 ft 441 kts 62°
2026-05-08 14:48 7.77865 4.49092 24788 ft 443 kts 61°
2026-05-08 14:49 7.79385 4.51811 25000 ft 444 kts 61°
2026-05-08 14:49 7.80910 4.54534 25207 ft 445 kts 61°
2026-05-08 14:49 7.82435 4.57258 25408 ft 446 kts 61°
2026-05-08 14:49 7.83943 4.59956 25605 ft 447 kts 61°
2026-05-08 14:50 7.85478 4.62703 25799 ft 449 kts 61°
2026-05-08 14:50 7.87011 4.65448 26001 ft 450 kts 61°
2026-05-08 14:50 7.88551 4.68207 26218 ft 451 kts 61°
2026-05-08 14:50 7.90095 4.70978 26403 ft 452 kts 61°
2026-05-08 14:51 7.91621 4.73721 26588 ft 453 kts 61°
2026-05-08 14:51 7.93167 4.76499 26781 ft 454 kts 61°
2026-05-08 14:51 7.94722 4.79291 26973 ft 456 kts 61°
2026-05-08 14:51 7.96276 4.82081 27159 ft 456 kts 61°
2026-05-08 14:52 7.97834 4.84879 27331 ft 458 kts 61°
2026-05-08 14:52 8.00940 4.90471 27658 ft 460 kts 62°
2026-05-08 14:52 8.02508 4.93296 27817 ft 461 kts 61°
2026-05-08 14:53 8.04075 4.96118 27966 ft 461 kts 61°
2026-05-08 14:53 8.05634 4.98920 28100 ft 462 kts 61°
2026-05-08 14:53 8.07216 5.01763 28235 ft 463 kts 61°
2026-05-08 14:53 8.08802 5.04609 28361 ft 464 kts 61°
2026-05-08 14:54 8.10378 5.07442 28491 ft 464 kts 61°
2026-05-08 14:54 8.11963 5.10295 28616 ft 465 kts 62°
2026-05-08 14:54 8.13552 5.13156 28746 ft 465 kts 62°
2026-05-08 14:54 8.15113 5.15960 28890 ft 465 kts 61°
2026-05-08 14:55 8.16704 5.18814 29045 ft 464 kts 62°
2026-05-08 14:55 8.18288 5.21656 29198 ft 464 kts 62°
2026-05-08 14:55 8.19870 5.24503 29363 ft 463 kts 62°
2026-05-08 14:55 8.21439 5.27332 29522 ft 462 kts 62°
2026-05-08 14:56 8.23011 5.30166 29689 ft 462 kts 62°
2026-05-08 14:56 8.24563 5.32964 29865 ft 461 kts 62°
2026-05-08 14:56 8.26131 5.35790 30003 ft 460 kts 62°
2026-05-08 14:56 8.27704 5.38621 30134 ft 460 kts 62°
2026-05-08 14:57 8.29273 5.41440 30262 ft 460 kts 62°
2026-05-08 14:57 8.30837 5.44254 30400 ft 460 kts 62°
2026-05-08 14:57 8.32401 5.47072 30534 ft 459 kts 62°
2026-05-08 14:57 8.33962 5.49894 30674 ft 459 kts 62°
2026-05-08 14:58 8.35519 5.52710 30817 ft 459 kts 62°
2026-05-08 14:58 8.37055 5.55484 30946 ft 459 kts 62°
2026-05-08 14:58 8.38618 5.58300 31085 ft 459 kts 62°
2026-05-08 14:58 8.40179 5.61116 31230 ft 459 kts 61°
2026-05-08 14:59 8.41746 5.63940 31369 ft 459 kts 61°
2026-05-08 14:59 8.44867 5.69565 31648 ft 459 kts 61°
2026-05-08 14:59 8.46403 5.72342 31790 ft 459 kts 61°
2026-05-08 15:00 8.47962 5.75166 31929 ft 459 kts 61°
2026-05-08 15:00 8.49519 5.77983 32077 ft 459 kts 61°
2026-05-08 15:00 8.51075 5.80793 32216 ft 459 kts 61°
2026-05-08 15:00 8.52634 5.83614 32366 ft 459 kts 61°
2026-05-08 15:01 8.54192 5.86432 32503 ft 459 kts 61°
2026-05-08 15:01 8.55734 5.89219 32647 ft 459 kts 61°
2026-05-08 15:01 8.57294 5.92043 32777 ft 459 kts 61°
2026-05-08 15:01 8.58842 5.94851 32810 ft 455 kts 61°
2026-05-08 15:02 8.61914 6.00430 32805 ft 453 kts 61°
2026-05-08 15:02 8.64976 6.05993 32804 ft 452 kts 61°
2026-05-08 15:03 8.68026 6.11556 32799 ft 452 kts 61°
2026-05-08 15:03 8.70942 6.17194 31632 ft 462 kts 64°
2026-05-08 15:04 8.72301 6.20162 30507 ft 468 kts 66°
2026-05-08 15:04 8.73616 6.23185 29529 ft 469 kts 67°
2026-05-08 15:04 8.74919 6.26220 28423 ft 470 kts 67°
2026-05-08 15:04 8.76241 6.29261 27361 ft 472 kts 66°
2026-05-08 15:05 8.77577 6.32273 26512 ft 468 kts 66°
2026-05-08 15:05 8.78926 6.35259 25745 ft 464 kts 66°
2026-05-08 15:05 8.80273 6.38210 25019 ft 460 kts 66°
2026-05-08 15:05 8.81617 6.41142 24325 ft 457 kts 66°
2026-05-08 15:06 8.82946 6.44042 23658 ft 453 kts 66°
2026-05-08 15:06 8.84243 6.46887 22933 ft 450 kts 66°
2026-05-08 15:06 8.85543 6.49753 22197 ft 445 kts 66°
2026-05-08 15:06 8.86826 6.52589 21480 ft 440 kts 66°
2026-05-08 15:07 8.88098 6.55404 20780 ft 435 kts 66°
2026-05-08 15:07 8.89351 6.58175 20105 ft 431 kts 66°
2026-05-08 15:07 8.90575 6.60880 19458 ft 426 kts 66°
2026-05-08 15:07 8.91805 6.63601 18808 ft 421 kts 65°
2026-05-08 15:08 8.93018 6.66283 18174 ft 417 kts 65°
2026-05-08 15:08 8.93819 6.68052 17682 ft 414 kts 65°
2026-05-08 15:08 8.95410 6.71565 16848 ft 404 kts 65°
2026-05-08 15:08 8.96566 6.74113 16364 ft 393 kts 65°
2026-05-08 15:09 8.97693 6.76594 15908 ft 384 kts 65°
2026-05-08 15:09 8.98785 6.79007 15429 ft 377 kts 65°
2026-05-08 15:09 8.99856 6.81374 14968 ft 370 kts 65°
2026-05-08 15:09 9.00917 6.83723 14506 ft 364 kts 65°
2026-05-08 15:10 9.01957 6.86034 14038 ft 359 kts 66°
2026-05-08 15:10 9.02986 6.88320 13569 ft 354 kts 65°
2026-05-08 15:10 9.03998 6.90559 13063 ft 350 kts 65°
2026-05-08 15:10 9.05004 6.92786 12595 ft 344 kts 66°
2026-05-08 15:11 9.05993 6.94977 12114 ft 339 kts 66°
2026-05-08 15:11 9.06968 6.97133 11659 ft 334 kts 66°
2026-05-08 15:11 9.07917 6.99233 11202 ft 330 kts 66°
2026-05-08 15:11 9.08869 7.01343 10735 ft 326 kts 66°
2026-05-08 15:12 9.09795 7.03395 10545 ft 313 kts 66°
2026-05-08 15:12 9.10681 7.05357 10430 ft 298 kts 66°
2026-05-08 15:12 9.11512 7.07203 10309 ft 285 kts 66°
2026-05-08 15:12 9.12321 7.08997 10117 ft 275 kts 66°
2026-05-08 15:13 9.13112 7.10744 9852 ft 270 kts 66°
2026-05-08 15:13 9.13894 7.12471 9690 ft 268 kts 66°
2026-05-08 15:13 9.14671 7.14196 9571 ft 268 kts 66°
2026-05-08 15:13 9.15436 7.15893 9427 ft 268 kts 66°
2026-05-08 15:14 9.16214 7.17621 8987 ft 270 kts 66°
2026-05-08 15:14 9.16998 7.19363 8499 ft 272 kts 66°
2026-05-08 15:14 9.17786 7.21113 7998 ft 274 kts 66°
2026-05-08 15:14 9.18577 7.22866 7537 ft 275 kts 66°
2026-05-08 15:15 9.19367 7.24620 7170 ft 271 kts 66°
2026-05-08 15:15 9.20114 7.26281 6866 ft 257 kts 66°
2026-05-08 15:15 9.20837 7.27888 6409 ft 248 kts 65°
2026-05-08 15:15 9.21511 7.29489 5772 ft 246 kts 75°
2026-05-08 15:16 9.21684 7.31185 5414 ft 240 kts 95°
2026-05-08 15:16 9.21281 7.32815 5359 ft 240 kts 114°
2026-05-08 15:16 9.20412 7.34236 5277 ft 233 kts 124°
2026-05-08 15:16 9.19493 7.35556 5167 ft 230 kts 124°
2026-05-08 15:17 9.18491 7.36816 5062 ft 230 kts 141°
2026-05-08 15:17 9.17015 7.37357 4959 ft 231 kts 180°
2026-05-08 15:17 9.15501 7.36854 4792 ft 234 kts 211°
2026-05-08 15:17 9.14166 7.35903 4367 ft 234 kts 216°
2026-05-08 15:18 9.12866 7.34943 3854 ft 227 kts 215°
2026-05-08 15:18 9.11596 7.34037 3347 ft 219 kts 214°
2026-05-08 15:18 9.10391 7.33185 3026 ft 203 kts 214°
2026-05-08 15:18 9.09281 7.32400 2779 ft 185 kts 214°
2026-05-08 15:19 9.08265 7.31681 2544 ft 171 kts 214°
2026-05-08 15:19 9.07338 7.31026 2343 ft 160 kts 214°
2026-05-08 15:19 9.06438 7.30390 2159 ft 155 kts 214°
2026-05-08 15:19 9.05557 7.29768 1976 ft 154 kts 214°
2026-05-08 15:20 9.04683 7.29149 1789 ft 153 kts 215°
2026-05-08 15:20 9.03811 7.28537 1600 ft 152 kts 214°
2026-05-08 15:20 9.02946 7.27920 1408 ft 152 kts 215°
2026-05-08 15:20 9.02084 7.27309 1192 ft 151 kts 215°
2026-05-08 15:21 9.01253 7.26722 1153 ft 134 kts 214°
2026-05-08 15:21 9.00544 7.26219 1229 ft 132 kts 236°
2026-05-08 15:21 9.00408 7.26017 1096 ft 0 kts 342°